Location: Cambroso
(45.2833°N, 12.0850°E)
Time: 13:57:49
(UTC+00:00)

Daily predictions for brighter satellites

Satellite Brightness Start Highest point End
(mag) Time Altitude Azimuth Time Altitude Azimuth Time Altitude Azimuth
Cosmos 2297 Rocket 4.5 16:31:27 10° WNW 16:34:41 15° NW 16:37:54 10° N
Cosmos 1603 4.1 16:31:45 10° NNW 16:37:28 73° WSW 16:43:09 10° SSE
NOAA 12 4.2 16:32:18 10° SSE 16:37:31 89° SW 16:42:48 10° NNW
Cosmos 1538 Rocket 4.3 16:35:07 10° N 16:40:02 42° ENE 16:44:55 10° SE
ATLAS 5 CENTAUR R/B 2.1 16:37:57 10° SW 16:41:53 54° NW 16:46:20 10° NNE
Cosmos 1777 Rocket 4.2 16:37:08 10° S 16:42:14 53° ESE 16:47:22 10° NNE
Cosmos 2279 Rocket 4.0 16:36:48 10° N 16:43:03 64° E 16:49:14 10° SSE
COSMO-SKYMED 1 3.4 16:40:09 10° NNE 16:44:00 30° E 16:47:49 10° SSE
H-2A R/B 2.9 16:40:20 10° S 16:44:19 68° WSW 16:48:30 10° NNW
CZ-2D R/B 4.1 16:41:55 10° SE 16:45:16 29° ENE 16:48:36 10° N
Lacrosse 5 2.3 16:44:16 10° NW 16:49:06 43° NNE 16:53:54 10° ESE
Aureole 3 4.4 16:48:27 10° NNE 16:50:43 16° ENE 16:52:47 10° ESE
FengYun 1-2 T 4.3 16:47:05 10° SSE 16:52:39 88° ENE 16:58:18 10° NNW
SL-14 R/B 4.0 16:51:59 10° SSW 16:55:46 54° WNW 16:59:37 10° N
ISS -2.9 16:53:50 10° SSW 16:56:57 36° SE 16:59:24 14° ENE
Okean-O 3.6 16:55:51 10° ESE 16:59:31 26° ENE 17:03:12 10° N
Okean O Rocket 2.0 16:56:04 10° S 17:00:30 71° WSW 17:04:57 10° NNW
RESURS DK-1 4.4 17:01:20 10° WSW 17:04:43 24° NW 17:08:06 10° N
Cosmos 2263 Rocket 3.2 16:59:27 10° SW 17:04:55 47° WNW 17:10:23 10° NNE
Helios 1A Rocket 4.1 17:04:23 10° ESE 17:07:38 23° ENE 17:10:55 10° NNE
Meteor 2-5 Rocket 4.4 17:02:22 10° SSW 17:07:50 58° WNW 17:13:18 10° N
Aureole 2 Rocket 2.4 17:05:53 10° S 17:08:45 43° ESE 17:10:58 16° NE
Cosmos 1455 2.8 17:06:30 10° N 17:09:58 32° ENE 17:13:26 10° SE
Cosmos 1606 Rocket 4.2 17:09:49 10° NNW 17:14:09 59° W 17:18:28 10° S
H-2A R/B 3.0 17:10:26 10° N 17:14:45 50° WNW 17:18:57 10° SW
Cosmos 1300 4.2 17:11:11 10° NNW 17:14:46 39° W 17:18:20 10° SSW
YAOGAN 1 3.1 17:11:38 10° SE 17:15:32 34° ENE 17:19:28 10° N
Cosmos 1892 Rocket 3.5 17:12:01 10° S 17:16:22 89° E 17:20:43 10° N
TELKOM 3 2.8 17:15:01 10° WSW 17:17:20 88° SSE 17:18:16 33° ENE
Cosmos 1689 Rocket 3.2 17:17:53 23° ESE 17:17:53 23° ESE 17:20:02 10° SSE
ARGOS 3.9 17:13:46 10° ESE 17:18:20 30° ENE 17:22:57 10° N
Cosmos 2228 4.4 17:17:37 10° NNW 17:21:39 42° W 17:25:42 10° SSW
Cosmos 1703 4.2 17:18:49 10° SSE 17:22:04 26° E 17:22:57 24° ENE
ERS-2 2.4 17:20:31 13° NNE 17:23:32 45° E 17:27:01 10° S
Cosmos 1092 Rocket 4.4 17:19:35 10° SSE 17:25:14 39° E 17:30:53 10° NNE
BREEZE-M DEB (TANK) 4.4 17:22:52 10° W 17:25:34 24° SW 17:27:30 10° SSE
CZ-2C R/B 3.8 17:26:41 21° ENE 17:27:49 22° E 17:32:07 10° SE
IRS-1C Rocket 4.0 17:23:49 10° SSE 17:29:03 76° ENE 17:34:19 10° NNW
CZ-4B R/B 1.7 17:26:06 10° N 17:29:28 68° WNW 17:32:44 10° SSW
Cosmos 1812 Rocket 4.3 17:25:47 10° NNE 17:29:39 29° ENE 17:33:28 10° SE
BREEZE-M DEB (TANK) 2.8 17:28:11 10° WNW 17:30:14 30° N 17:30:28 29° NNE
SJ 16-02 1.3 17:26:40 10° S 17:31:00 62° ESE 17:34:30 15° NNE
SKYMED 2 3.6 17:27:48 10° NNE 17:32:10 84° WNW 17:36:30 10° SSW
OE (NEXTSAT) 4.2 17:31:10 10° W 17:34:37 85° N 17:35:46 39° ENE
ATLAS 2AS CENTAUR R/B 4.4 17:28:34 10° W 17:35:18 29° NNW 17:41:53 10° NNE
EXPRESS MD2 4.3 17:30:29 10° WNW 17:38:37 72° SSW 17:41:33 19° SE
Cosmos 1833 Rocket 3.9 17:34:39 10° N 17:38:55 21° NE 17:38:57 21° NE
Cosmos 158 Rocket 4.0 17:34:05 10° NNW 17:39:25 66° ENE 17:44:47 10° SSE
Cosmos 1844 3.7 17:34:19 10° SSW 17:39:52 65° ESE 17:44:20 17° NNE
Nadezhda 4 Rocket 3.9 17:35:12 10° S 17:41:27 84° E 17:47:41 10° N
Cosmos 923 Rocket 4.0 17:36:26 10° NNW 17:41:45 63° ENE 17:47:00 10° SSE
Cosmos 1939 Rocket 4.3 17:38:23 10° S 17:42:17 41° W 17:46:12 10° NNW
Cosmos 2082 Rocket 3.9 17:39:34 10° N 17:42:06 15° NNE 17:42:06 15° NNE
H-2A R/B 1.9 17:40:27 10° SSE 17:45:22 66° ENE 17:50:27 10° N
Cosmos 1898 Rocket 4.0 17:42:28 10° S 17:47:19 38° ESE 17:48:39 33° ENE
Cosmos 2058 Rocket 3.9 17:43:30 10° NNW 17:47:54 53° W 17:52:17 10° S
Cosmos 1680 Rocket 3.5 17:43:35 10° NNW 17:48:45 55° ENE 17:53:32 12° SE
CZ-2C R/B 3.4 17:43:46 10° S 17:49:02 71° WSW 17:54:39 10° NNW
CZ-4C R/B 4.3 17:45:33 10° WNW 17:49:31 19° NNW 17:53:55 10° NNE
Cosmos 1328 4.4 17:47:08 10° SSE 17:50:12 37° ESE 17:50:12 37° ESE
Meteor 2-13 Rocket 4.5 17:46:36 10° S 17:52:43 84° W 17:58:53 10° N
PSLV R/B 3.9 17:49:10 13° NNE 17:52:57 84° ESE 17:57:10 10° SSW
COSMOS 2455 3.4 17:47:13 10° SW 17:53:08 57° NW 17:58:25 13° NNE
SJ-11-01 4.1 17:50:59 10° SSE 17:55:40 75° ENE 18:00:22 10° N
CZ-4 R/B 1.5 17:52:29 10° S 17:56:36 75° WSW 18:00:39 10° NNW
MOS 1 Rocket 3.5 17:52:54 10° N 17:57:10 61° WNW 18:01:22 10° SSW
USA 234 4.0 17:55:48 28° NE 17:58:18 37° NNE 18:04:12 10° NW
Cosmos 1844 Rocket 2.8 17:53:01 10° SSW 17:58:41 76° WNW 18:03:16 16° NNE
Cosmos 1818 3.7 17:55:41 10° SW 18:01:05 73° NW 18:04:19 25° NNE
Iridium 4 Rocket 3.5 17:58:17 10° N 18:03:56 65° E 18:09:07 10° SSE
CREW DRAGON DEMO-1 DEB 4.1 18:03:28 10° WNW 18:05:17 34° NW 18:05:17 34° NW
SAR-Lupe-4 3.9 18:06:12 32° N 18:07:39 63° WNW 18:11:11 10° SSW
Cosmos 1626 Rocket 3.7 18:03:57 10° SSW 18:08:19 75° W 18:12:05 14° N
Cosmos 2278 Rocket 3.8 18:05:45 10° SSE 18:07:29 18° SE 18:07:29 18° SE
X-37B 1.5 18:07:20 10° WSW 18:09:46 46° SW 18:09:46 46° SW
Meteor 1-21 Rocket 4.4 18:06:36 10° SSW 18:12:07 72° WNW 18:17:41 10° N
Meteor 2-19 Rocket 4.4 18:10:59 10° S 18:16:58 56° E 18:19:49 31° NNE
Cosmos 44 3.1 18:12:17 10° SSW 18:17:00 73° ESE 18:17:27 68° E
Cosmos 1553 Rocket 4.1 18:11:12 10° N 18:17:26 49° ENE 18:18:15 47° E
Cosmos 2026 Rocket 3.8 18:12:12 10° S 18:18:17 76° E 18:24:29 10° N
Cosmos 1937 Rocket 3.7 18:15:48 10° S 18:20:18 52° SE 18:20:18 52° SE
CSL-04 Rocket 3.6 18:15:49 10° SSE 18:21:13 90° WNW 18:26:44 10° NNW
Cosmos 2112 Rocket 3.9 18:21:18 10° NNW 18:26:34 85° WSW 18:28:49 35° SSE
ATLAS 5 CENTAUR R/B 4.1 18:25:21 10° NW 18:27:41 14° NNW 18:29:12 12° N
Lacrosse 5 2.7 18:27:18 10° WNW 18:32:08 46° SW 18:34:00 32° S
ISS -1.7 18:30:27 10° W 18:32:22 28° WNW 18:32:22 28° WNW
Okean-O 4.3 18:31:50 10° SSW 18:35:51 34° W 18:39:55 10° NNW
Meteor 2-15 4.3 18:34:28 10° N 18:40:41 87° E 18:46:50 10° S
Cosmos 2344 4.2 18:35:37 10° NW 18:44:58 77° NE 18:51:01 36° SE
NOSS 3-1 (C) 4.0 18:41:13 10° NW 18:48:48 87° SW 18:51:58 44° SSE
ARGOS 4.3 18:53:24 10° SSW 18:58:26 41° W 19:03:31 10° NNW
COSMOS 2406 3.9 19:00:16 10° NNW 19:04:20 47° NNW 19:04:20 47° NNW
USA 267 3.4 19:07:16 62° S 19:07:16 62° S 19:12:48 10° SW
USA 229 DEB 3.7 18:58:56 10° NW 19:06:18 90° SSW 19:06:38 84° SE
USA 229 3.7 18:59:03 10° NW 19:06:24 89° NE 19:06:40 85° SE
CZ-2C R/B 3.2 19:08:10 56° WNW 19:08:25 57° WNW 19:13:53 10° SSW
SJ 16-02 4.0 19:07:17 10° W 19:10:01 16° NW 19:11:32 14° NNW
CZ-3B R/B 3.6 19:17:06 10° WNW 19:40:49 - SE 19:20:08 50° WSW
NOSS 3-1 (A) 4.0 19:14:21 10° NW 19:21:50 86° W 19:21:50 86° W
Cosmos 1833 Rocket 4.1 19:17:50 10° NNW 19:20:41 31° NW 19:20:41 31° NW
Cosmos 2082 Rocket 4.2 19:22:17 10° NNW 19:23:58 20° NNW 19:23:58 20° NNW
USA 234 4.1 19:43:09 42° NW 19:43:09 42° NW 19:47:18 10° NW
